This is the latest recevied weather packets stored in our database for station/object KD8BMB. If no packets are shown the sender has not sent any weather packets the latest 1 day(s).
| Time | Temp. | Humidity | Pressure | Rain* | Wind** | Luminosity | Snow |
|---|---|---|---|---|---|---|---|
| 1777999017 | 11.11° C | 77% | 1006.4 hPa | 0 mm | 0.89 m/s, 273° | 349 W/m² | - |
| 1777998715 | 11.11° C | 78% | 1006.5 hPa | 0 mm | 0 m/s | 367 W/m² | - |
| 1777998413 | 11.67° C | 77% | 1006.1 hPa | 0 mm | 0.89 m/s, 268° | 327 W/m² | - |
| 1777998110 | 11.11° C | 80% | 1006.4 hPa | 0 mm | 0.45 m/s, 221° | 338 W/m² | - |
| 1777997806 | 10.56° C | 81% | 1006.4 hPa | 0 mm | 0.45 m/s, 216° | 281 W/m² | - |
| 1777997504 | 10.56° C | 82% | 1006.3 hPa | 0 mm | 0.45 m/s, 274° | 224 W/m² | - |
| 1777997202 | 10.56° C | 80% | 1006.4 hPa | 0 mm | 1.34 m/s, 273° | 218 W/m² | - |
| 1777996899 | 10.56° C | 81% | 1006.3 hPa | 0 mm | 0.45 m/s, 320° | 201 W/m² | - |
| 1777996595 | 10° C | 81% | 1006.4 hPa | 0 mm | 0 m/s | 151 W/m² | - |
| 1777996291 | 10.56° C | 81% | 1006.4 hPa | 0 mm | 0.45 m/s, 216° | 155 W/m² | - |
| 1777995987 | 10° C | 81% | 1006.6 hPa | 0 mm | 0.89 m/s, 260° | 232 W/m² | - |
| 1777995683 | 10° C | 82% | 1006.6 hPa | 0 mm | 0 m/s | 144 W/m² | - |
| 1777995381 | 10° C | 81% | 1006.6 hPa | 0 mm | 0 m/s | 146 W/m² | - |
| 1777995078 | 10° C | 81% | 1006.9 hPa | 0 mm | 0 m/s | 143 W/m² | - |
| 1777994775 | 10° C | 83% | 1006.5 hPa | 0 mm | 0.45 m/s, 224° | 296 W/m² | - |
| 1777994470 | 10° C | 85% | 1006.7 hPa | 0 mm | 0 m/s | 264 W/m² | - |
| 1777994166 | 9.44° C | 85% | 1006.3 hPa | 0 mm | 0 m/s | 144 W/m² | - |
| 1777993864 | 9.44° C | 87% | 1006.4 hPa | 0 mm | 0 m/s | 100 W/m² | - |
| 1777993560 | 9.44° C | 87% | 1006.5 hPa | 0 mm | 0 m/s | 100 W/m² | - |
| 1777993256 | 9.44° C | 87% | 1006 hPa | 0 mm | 0.45 m/s, 239° | 87 W/m² | - |
| 1777992952 | 9.44° C | 86% | 1006.1 hPa | 0 mm | 0 m/s | 96 W/m² | - |
| 1777992651 | 9.44° C | 86% | 1006.1 hPa | 0 mm | 0 m/s | 104 W/m² | - |
| 1777992348 | 9.44° C | 85% | 1005.9 hPa | 0 mm | 0 m/s | 65 W/m² | - |
| 1777992045 | 9.44° C | 84% | 1005.7 hPa | 0 mm | 0 m/s | 96 W/m² | - |
| 1777991743 | 9.44° C | 87% | 1005.4 hPa | 1.27 mm | 0 m/s | 162 W/m² | - |
* Rain latest hour (hover to see other rain measurements)
** Current wind speed in m/s (hover to see current wind gust speed)